Location: Saluda
(35.2377°N, 82.3468°W)
Time: 06:39:50
(UTC+00:00)

Vanguard 2 - Pass Details

Date: 09 October 2022
Orbit: 553 x 2933 km, 32.9° (Epoch: 26 November)

Event Time Altitude Azimuth Distance (km) Brightness Sun altitude
Rises 20:40:36 0° 279° (W) 5,024 12.4 26.4°
Reaches altitude 10° 20:43:28 10° 277° (W) 4,303 12.3 25.9°
Maximum altitude 20:56:01 66° 198° (SSW) 2,726 11.0 23.7°
Drops below altitude 10° 21:13:27 10° 122° (ESE) 5,758 11.7 20.5°
Sets 21:18:00 0° 120° (ESE) 6,751 12.0 19.6°
